Location: Borgo
(42.3939°N, 9.2791°E)
Time: 18:54:58
(UTC+00:00)

Helios 1A Rocket - Pass Details

Date: 24 January 2021
Orbit: 562 x 586 km, 98.3° (Epoch: 03 March)

Event Time Altitude Azimuth Distance (km) Brightness Sun altitude
Rises 17:11:59 0° 128° (SE) 2,803 6.1 -8.6°
Reaches altitude 10° 17:14:37 10° 110° (ESE) 1,909 5.1 -9.1°
Maximum altitude 17:17:32 19° 65° (ENE) 1,424 4.3 -9.6°
Drops below altitude 10° 17:20:27 10° 20° (NNE) 1,919 5.2 -10.1°
Sets 17:23:06 0° 3° (N) 2,823 6.3 -10.6°
